GW7392 Weather Reports


time (UTC)temp
C
wind
direction
speed
KPH
gust
KPH
rain 1hr
cm
rain 24hr
cm
rain mn
cm
humidity
%
barometer
mb
20260508021520 9 293 9.7 16.1 0.00 4.98 0.00 93 1014.4
20260508020519 9 293 11.3 17.7 0.00 4.98 0.00 93 1014.5
20260508015521 9 293 9.7 14.5 0.00 4.98 0.00 93 1014.6
20260508014520 9 270 8.0 12.9 0.00 4.98 0.00 92 1014.7
20260508013520 9 270 8.0 12.9 0.00 4.98 0.00 92 1014.6
20260508012520 9 270 9.7 20.9 0.00 4.98 0.00 92 1014.5
20260508011521 10 270 8.0 12.9 0.00 4.98 0.00 92 1014.8
20260508010520 9 293 11.3 16.1 0.00 4.98 0.00 92 1014.8
20260508005520 10 270 9.7 17.7 0.00 4.98 0.00 92 1014.9
20260508004537 10 270 9.7 19.3 0.00 4.98 0.00 92 1014.9
20260508003520 10 270 9.7 14.5 0.00 4.98 0.00 92 1014.9
20260508002537 10 270 12.9 20.9 0.00 4.98 0.00 92 1014.7
20260508001521 9 270 11.3 20.9 0.00 4.98 0.00 92 1014.7
20260508000520 9 270 11.3 19.3 0.00 4.98 0.00 92 1014.8
20260507235537 10 270 11.3 19.3 0.00 5.03 0.00 93 1014.8
20260507234520 10 270 11.3 20.9 0.00 5.03 0.00 93 1014.8
20260507233520 10 293 9.7 17.7 0.00 5.03 0.00 93 1014.9
20260507232520 10 270 9.7 16.1 0.00 5.03 0.00 93 1015.0
20260507231523 10 293 8.0 14.5 0.00 5.03 0.00 93 1015.2
20260507230553 10 293 8.0 14.5 0.00 5.03 0.00 92 1015.0
20260507225520 9 293 8.0 20.9 0.00 5.33 0.00 92 1014.8
20260507224520 10 293 11.3 19.3 0.00 5.33 0.00 92 1014.9
20260507223519 10 293 11.3 19.3 0.00 5.33 0.00 92 1014.8
20260507222522 10 293 11.3 20.9 0.00 5.33 0.00 92 1014.7
20260507221520 10 293 11.3 17.7 0.00 5.33 0.00 92 1014.9
20260507220519 10 293 11.3 17.7 0.00 5.33 0.00 92 1015.0
20260507215536 10 270 11.3 22.5 0.00 5.33 5.33 92 1014.9
20260507214519 10 293 11.3 19.3 0.00 5.33 5.33 92 1014.9
20260507213519 10 293 12.9 19.3 0.00 5.33 5.33 92 1014.8
20260507212519 10 270 12.9 20.9 0.00 5.33 5.33 92 1014.9
20260507211519 10 270 11.3 24.1 0.00 5.33 5.33 92 1014.9
20260507210519 10 270 11.3 19.3 0.00 5.33 5.33 92 1014.9
20260507205521 10 293 12.9 25.7 0.00 5.33 5.33 93 1015.0
20260507204521 10 293 11.3 19.3 0.00 5.33 5.33 93 1015.1
20260507203521 10 293 9.7 20.9 0.00 5.33 5.33 93 1015.3
20260507202521 10 293 12.9 22.5 0.00 5.33 5.33 93 1015.2
20260507201521 10 293 11.3 19.3 0.00 5.33 5.33 93 1015.3
20260507200521 10 293 11.3 17.7 0.00 5.33 5.33 93 1015.0
20260507195521 10 293 11.3 17.7 0.00 5.33 5.33 92 1015.1
20260507194536 10 293 11.3 16.1 0.00 5.33 5.33 92 1015.1
20260507193519 9 293 12.9 19.3 0.00 5.33 5.33 92 1014.9
20260507192519 10 293 12.9 22.5 0.00 5.33 5.33 92 1014.7
20260507191520 10 293 11.3 20.9 0.00 5.33 5.33 92 1015.0
20260507190521 9 293 14.5 20.9 0.00 5.33 5.33 92 1014.9
20260507185521 9 293 12.9 20.9 0.00 5.33 5.33 92 1014.8
20260507184538 10 293 12.9 20.9 0.00 5.33 5.33 92 1014.8
20260507183520 10 293 14.5 25.7 0.00 5.33 5.33 92 1014.7
20260507182520 10 270 12.9 22.5 0.00 5.33 5.33 92 1014.7
20260507181521 10 293 14.5 22.5 0.00 5.33 5.33 93 1014.7
20260507180537 10 270 12.9 20.9 0.00 5.33 5.33 93 1014.6
20260507175520 10 293 12.9 20.9 0.00 5.33 5.33 92 1014.6
20260507174521 10 270 11.3 17.7 0.00 5.33 5.33 92 1014.5
20260507173537 10 270 12.9 20.9 0.00 5.33 5.33 92 1014.3
20260507172520 10 270 12.9 22.5 0.00 5.33 5.33 92 1014.2
20260507171519 10 270 12.9 24.1 0.00 5.33 5.33 92 1014.1
20260507170521 10 270 16.1 29.0 0.00 5.33 5.33 92 1013.8
20260507165520 10 270 14.5 24.1 0.00 5.33 5.33 93 1013.6
20260507164520 10 270 17.7 37.0 0.00 5.33 5.33 93 1013.6
20260507163520 10 270 14.5 29.0 0.00 5.33 5.33 93 1013.5
20260507162520 10 270 12.9 22.5 0.03 5.33 5.33 93 1013.2
20260507161520 10 270 14.5 30.6 0.03 5.33 5.33 92 1013.0
20260507160537 10 270 14.5 29.0 0.03 5.33 5.33 92 1013.0
20260507155520 10 270 17.7 30.6 0.03 5.33 5.33 93 1013.0
20260507154520 10 270 16.1 37.0 0.03 5.33 5.33 93 1012.8
20260507153520 10 270 19.3 37.0 0.03 5.33 5.33 93 1012.6
20260507152520 10 270 17.7 37.0 0.00 5.31 5.31 93 1012.2
20260507151520 10 270 17.7 29.0 0.00 5.31 5.31 93 1012.3
20260507150520 10 270 14.5 37.0 0.05 5.31 5.31 94 1012.2
20260507145520 10 270 14.5 22.5 0.15 5.31 5.31 94 1012.2
20260507144524 10 270 14.5 32.2 0.15 5.31 5.31 94 1011.9
20260507143520 11 270 14.5 25.7 0.18 5.31 5.31 94 1012.2
20260507142520 11 270 16.1 30.6 0.23 5.31 5.31 94 1012.1
20260507141520 11 270 16.1 33.8 0.28 5.31 5.31 94 1011.9
20260507140520 11 270 16.1 32.2 0.23 5.26 5.26 94 1011.7
20260507135520 11 270 16.1 35.4 0.20 5.18 5.18 94 1011.4
20260507134520 11 270 11.3 20.9 0.28 5.16 5.16 94 1011.6
20260507133508 11 270 14.5 30.6 0.33 5.13 5.13 94 1011.4
20260507132537 11 270 12.9 25.7 0.30 5.11 5.11 94 1011.1
20260507131520 11 270 16.1 30.6 0.23 5.03 5.03 94 1010.7
20260507125520 11 270 12.9 24.1 0.20 4.98 4.98 94 1010.2
20260507124536 12 270 14.5 33.8 0.15 4.88 4.88 94 1010.4
20260507123520 12 270 12.9 32.2 0.10 4.80 4.80 94 1010.1
20260507122519 12 270 12.9 22.5 0.15 4.80 4.80 95 1010.0
20260507121520 11 270 11.3 20.9 0.18 4.80 4.80 95 1009.8
20260507120519 11 270 16.1 22.5 0.20 4.80 4.80 95 1009.9
20260507115519 11 270 12.9 29.0 0.18 4.78 4.78 95 1009.7
20260507114519 11 248 17.7 32.2 0.18 4.75 4.75 95 1009.6
20260507113519 11 270 14.5 29.0 0.15 4.70 4.70 95 1009.4
20260507112519 12 270 16.1 35.4 0.10 4.65 4.65 95 1009.3
20260507111520 12 270 14.5 29.0 0.10 4.62 4.62 95 1009.2
20260507110520 12 270 14.5 32.2 0.13 4.60 4.60 95 1009.1
20260507105536 12 270 14.5 32.2 0.13 4.60 4.60 95 1009.0
20260507104536 12 270 14.5 32.2 0.13 4.57 4.57 95 1008.9
20260507103520 12 248 14.5 32.2 0.20 4.57 4.57 95 1008.8
20260507102520 12 248 16.1 35.4 0.25 4.57 4.57 95 1008.7
20260507101521 12 270 12.9 25.7 0.25 4.52 4.52 95 1008.7
20260507100519 12 270 16.1 30.6 0.33 4.47 4.47 95 1008.6
20260507095536 12 270 14.5 29.0 0.43 4.47 4.47 95 1008.5
20260507094520 12 270 11.3 32.2 0.43 4.45 4.45 95 1008.7
20260507093520 12 270 12.9 29.0 0.56 4.37 4.37 95 1008.7
20260507092520 12 270 14.5 29.0 0.69 4.29 4.29 95 1008.5
20260507091520 12 270 12.9 24.1 0.84 4.27 4.27 95 1008.7
20260507090519 11 270 11.3 19.3 0.79 4.14 4.14 95 1008.4
20260507085536 11 270 14.5 24.1 0.74 4.06 4.06 95 1008.2
20260507084519 11 270 12.9 24.1 0.71 3.99 3.99 95 1008.0
20260507083520 11 270 12.9 22.5 0.61 3.81 3.81 95 1008.2
20260507082519 11 270 14.5 25.7 0.48 3.63 3.63 95 1008.0
20260507081536 11 270 16.1 25.7 0.36 3.43 3.43 95 1007.7
20260507080519 12 270 12.9 17.7 0.33 3.35 3.35 95 1007.6
20260507075521 11 293 12.9 24.1 0.46 3.33 3.33 95 1007.4
20260507074519 11 293 12.9 20.9 0.48 3.28 3.28 95 1007.0
20260507073519 11 270 12.9 24.1 0.43 3.20 3.20 95 1007.2
20260507072519 11 293 12.9 24.1 0.41 3.15 3.15 95 1007.1
20260507071520 11 293 14.5 30.6 0.43 3.05 3.05 95 1007.0
20260507070520 11 293 14.5 24.1 0.51 3.05 3.05 94 1006.8
20260507065519 11 293 14.5 25.7 0.43 2.87 2.87 94 1006.5
20260507064519 11 293 16.1 29.0 0.43 2.79 2.79 94 1006.3
20260507063519 11 293 16.1 24.1 0.58 2.77 2.77 94 1006.2
20260507062538 11 270 16.1 29.0 0.58 2.74 2.74 94 1005.7
20260507061521 11 270 14.5 24.1 0.51 2.64 2.64 94 1005.4
20260507060538 11 270 11.3 22.5 0.64 2.51 2.51 94 1005.3
20260507055519 12 270 12.9 20.9 0.64 2.46 2.44 94 1005.2
20260507054519 12 270 14.5 20.9 0.84 2.39 2.36 94 1004.8
20260507053521 12 270 11.3 24.1 0.86 2.21 2.21 94 1004.7
20260507052554 12 270 17.7 37.0 0.91 2.18 2.16 94 1004.4
20260507051521 12 270 14.5 32.2 1.07 2.13 2.11 94 1004.2
20260507050519 12 270 17.7 32.2 0.84 1.91 1.88 94 1004.1
20260507045519 12 270 11.3 19.3 0.79 1.83 1.80 94 1003.6
20260507044519 12 270 11.3 19.3 0.51 1.55 1.52 94 1003.8
20260507043519 12 270 12.9 25.7 0.38 1.37 1.35 94 1003.3
20260507042519 12 270 16.1 30.6 0.33 1.27 1.24 94 1003.1
20260507041521 12 270 16.1 32.2 0.18 1.09 1.07 94 1003.1
20260507040522 12 270 17.7 46.7 0.23 1.07 1.04 94 1002.5